| time (UTC) | temp F | wind direction | speed MPH | gust MPH | rain 1hr in | rain 24hr in | rain mn in | humidity % | barometer mb |
| 20260507192240 | 46 | 74 | 0.0 | 0.0 | 0.00 | 0.00 | 0.18 | 81 | 1015.1 |
| 20260507191739 | 46 | 74 | 0.0 | 0.0 | 0.00 | 0.00 | 0.18 | 82 | 1015.1 |
| 20260507191239 | 46 | 74 | 0.0 | 0.0 | 0.00 | 0.00 | 0.18 | 82 | 1014.9 |
| 20260507190738 | 46 | 74 | 0.0 | 0.0 | 0.00 | 0.00 | 0.18 | 81 | 1014.9 |
| 20260507190234 | 46 | 72 | 0.0 | 0.0 | 0.00 | 0.00 | 0.18 | 81 | 1014.9 |
| 20260507185734 | 46 | 72 | 0.0 | 0.0 | 0.00 | 0.00 | 0.18 | 82 | 1014.6 |
| 20260507185250 | 46 | 72 | 0.0 | 0.0 | 0.00 | 0.00 | 0.18 | 82 | 1014.6 |
| 20260507184746 | 46 | 72 | 0.0 | 0.0 | 0.00 | 0.00 | 0.18 | 83 | 1014.6 |
| 20260507184246 | 47 | 72 | 0.0 | 0.0 | 0.00 | 0.00 | 0.18 | 83 | 1014.6 |
| 20260507183743 | 47 | 72 | 0.0 | 0.0 | 0.00 | 0.00 | 0.18 | 81 | 1014.6 |
| 20260507183243 | 47 | 72 | 0.0 | 0.0 | 0.00 | 0.00 | 0.18 | 80 | 1014.6 |
| 20260507182742 | 47 | 72 | 0.0 | 0.0 | 0.00 | 0.00 | 0.18 | 81 | 1014.5 |
| 20260507182241 | 47 | 72 | 0.0 | 0.0 | 0.00 | 0.00 | 0.18 | 83 | 1014.5 |
| 20260507181741 | 47 | 72 | 0.0 | 0.0 | 0.00 | 0.00 | 0.18 | 81 | 1014.5 |
| 20260507181237 | 47 | 72 | 0.0 | 0.0 | 0.00 | 0.00 | 0.18 | 81 | 1014.6 |
| 20260507180736 | 47 | 72 | 0.0 | 0.0 | 0.00 | 0.00 | 0.18 | 82 | 1014.6 |
| 20260507180232 | 47 | 76 | 0.0 | 0.0 | 0.00 | 0.00 | 0.18 | 85 | 1014.6 |
| 20260507175732 | 46 | 76 | 0.0 | 0.0 | 0.00 | 0.00 | 0.18 | 83 | 1014.6 |
| 20260507175249 | 47 | 76 | 0.0 | 0.0 | 0.00 | 0.00 | 0.18 | 84 | 1014.6 |
| 20260507174745 | 47 | 76 | 0.0 | 0.0 | 0.00 | 0.00 | 0.18 | 86 | 1014.6 |
| 20260507174241 | 46 | 76 | 0.0 | 0.0 | 0.00 | 0.00 | 0.18 | 83 | 1014.4 |
| 20260507173737 | 46 | 76 | 0.0 | 0.0 | 0.00 | 0.00 | 0.18 | 82 | 1014.4 |
| 20260507173238 | 46 | 76 | 0.0 | 0.0 | 0.00 | 0.00 | 0.18 | 84 | 1014.4 |
| 20260507172738 | 46 | 76 | 0.0 | 0.0 | 0.00 | 0.00 | 0.18 | 87 | 1014.4 |
| 20260507172238 | 46 | 76 | 0.0 | 0.0 | 0.00 | 0.00 | 0.18 | 86 | 1014.4 |
| 20260507171734 | 46 | 76 | 0.0 | 0.0 | 0.00 | 0.00 | 0.18 | 85 | 1014.4 |
| 20260507171234 | 45 | 77 | 0.0 | 0.0 | 0.00 | 0.00 | 0.18 | 84 | 1014.6 |
| 20260507170748 | 45 | 77 | 0.0 | 0.0 | 0.00 | 0.00 | 0.18 | 85 | 1014.6 |
| 20260507170246 | 45 | 77 | 0.0 | 0.0 | 0.00 | 0.00 | 0.18 | 85 | 1014.6 |
| 20260507165742 | 45 | 78 | 0.0 | 0.0 | 0.00 | 0.00 | 0.17 | 84 | 1014.5 |
| 20260507165242 | 46 | 76 | 0.0 | 0.0 | 0.00 | 0.00 | 0.14 | 83 | 1014.5 |
| 20260507164742 | 45 | 71 | 0.0 | 0.0 | 0.00 | 0.00 | 0.13 | 83 | 1014.5 |
| 20260507164242 | 46 | 72 | 0.0 | 0.0 | 0.00 | 0.00 | 0.13 | 87 | 1014.5 |
| 20260507163738 | 46 | 79 | 0.0 | 0.0 | 0.00 | 0.00 | 0.13 | 86 | 1014.5 |
| 20260507163234 | 46 | 89 | 0.0 | 0.0 | 0.00 | 0.00 | 0.11 | 87 | 1014.5 |
| 20260507162733 | 46 | 101 | 0.0 | 0.0 | 0.00 | 0.00 | 0.09 | 86 | 1014.3 |
| 20260507162229 | 47 | 86 | 0.0 | 0.0 | 0.00 | 0.00 | 0.08 | 87 | 1014.3 |
| 20260507161749 | 47 | 86 | 0.0 | 0.0 | 0.00 | 0.00 | 0.08 | 86 | 1014.3 |
| 20260507161245 | 48 | 126 | 0.0 | 0.0 | 0.00 | 0.00 | 0.08 | 85 | 1014.1 |
| 20260507160741 | 49 | 106 | 0.0 | 0.0 | 0.00 | 0.00 | 0.08 | 85 | 1014.1 |
| 20260507160236 | 49 | 134 | 0.0 | 0.0 | 0.00 | 0.00 | 0.08 | 80 | 1014.1 |
| 20260507155736 | 49 | 83 | 0.0 | 0.0 | 0.00 | 0.00 | 0.08 | 80 | 1014.0 |
| 20260507155240 | 49 | 110 | 0.0 | 0.0 | 0.00 | 0.00 | 0.08 | 80 | 1014.0 |
| 20260507154736 | 49 | 105 | 0.0 | 0.0 | 0.00 | 0.00 | 0.08 | 80 | 1014.0 |
| 20260507154236 | 49 | 103 | 0.0 | 0.0 | 0.00 | 0.00 | 0.08 | 81 | 1013.9 |
| 20260507153752 | 49 | 103 | 0.0 | 0.0 | 0.00 | 0.00 | 0.08 | 80 | 1013.9 |
| 20260507153247 | 49 | 88 | 0.0 | 0.0 | 0.00 | 0.00 | 0.08 | 80 | 1013.9 |
| 20260507152742 | 49 | 107 | 0.0 | 0.0 | 0.00 | 0.00 | 0.08 | 80 | 1013.8 |
| 20260507152241 | 49 | 100 | 0.0 | 0.0 | 0.00 | 0.00 | 0.08 | 80 | 1013.8 |
| 20260507151741 | 49 | 103 | 0.0 | 0.0 | 0.00 | 0.00 | 0.08 | 80 | 1013.8 |
| 20260507151241 | 50 | 107 | 0.0 | 0.0 | 0.00 | 0.00 | 0.08 | 79 | 1013.6 |
| 20260507150736 | 50 | 117 | 0.0 | 0.0 | 0.00 | 0.00 | 0.08 | 78 | 1013.6 |
| 20260507150253 | 50 | 115 | 0.0 | 0.0 | 0.00 | 0.00 | 0.08 | 76 | 1013.6 |
| 20260507145748 | 50 | 89 | 0.0 | 0.0 | 0.00 | 0.00 | 0.08 | 80 | 1013.8 |
| 20260507145244 | 50 | 105 | 0.0 | 0.0 | 0.00 | 0.00 | 0.08 | 80 | 1013.8 |
| 20260507144744 | 49 | 104 | 0.0 | 0.0 | 0.00 | 0.00 | 0.08 | 81 | 1013.8 |
| 20260507144240 | 49 | 94 | 0.0 | 0.0 | 0.00 | 0.00 | 0.08 | 80 | 1013.9 |
| 20260507143740 | 50 | 96 | 0.0 | 0.0 | 0.00 | 0.00 | 0.08 | 80 | 1013.9 |
| 20260507143236 | 50 | 90 | 0.0 | 0.0 | 0.00 | 0.00 | 0.08 | 81 | 1013.9 |
| 20260507142732 | 49 | 110 | 0.0 | 0.0 | 0.00 | 0.00 | 0.08 | 82 | 1013.6 |
| 20260507142250 | 49 | 99 | 0.0 | 0.0 | 0.00 | 0.00 | 0.08 | 81 | 1013.6 |
| 20260507141746 | 49 | 100 | 0.0 | 0.0 | 0.00 | 0.00 | 0.08 | 81 | 1013.6 |
| 20260507141242 | 50 | 119 | 0.0 | 0.0 | 0.00 | 0.00 | 0.08 | 80 | 1013.7 |
| 20260507140736 | 50 | 88 | 0.0 | 0.0 | 0.00 | 0.00 | 0.08 | 81 | 1013.7 |
| 20260507140236 | 49 | 94 | 0.0 | 0.0 | 0.00 | 0.00 | 0.08 | 78 | 1013.7 |
| 20260507135735 | 49 | 100 | 0.0 | 0.0 | 0.00 | 0.00 | 0.08 | 81 | 1014.0 |
| 20260507135234 | 49 | 117 | 0.0 | 0.0 | 0.00 | 0.00 | 0.08 | 80 | 1014.0 |
| 20260507134749 | 50 | 110 | 0.0 | 0.0 | 0.00 | 0.00 | 0.08 | 81 | 1014.0 |
| 20260507134245 | 49 | 93 | 0.0 | 0.0 | 0.00 | 0.00 | 0.08 | 83 | 1014.1 |
| 20260507133742 | 49 | 127 | 0.0 | 0.0 | 0.00 | 0.00 | 0.08 | 83 | 1014.1 |
| 20260507133242 | 49 | 117 | 0.0 | 0.0 | 0.00 | 0.00 | 0.08 | 83 | 1014.1 |
| 20260507132741 | 49 | 129 | 0.0 | 0.0 | 0.00 | 0.00 | 0.08 | 82 | 1014.1 |
| 20260507132245 | 49 | 125 | 0.0 | 0.0 | 0.00 | 0.00 | 0.08 | 83 | 1014.1 |
| 20260507131744 | 49 | 117 | 0.0 | 0.0 | 0.00 | 0.00 | 0.08 | 81 | 1014.1 |
| 20260507131240 | 49 | 108 | 0.0 | 0.0 | 0.00 | 0.00 | 0.08 | 81 | 1014.0 |
| 20260507130735 | 50 | 105 | 0.0 | 0.0 | 0.00 | 0.00 | 0.08 | 80 | 1014.0 |
| 20260507130250 | 50 | 94 | 0.0 | 0.0 | 0.00 | 0.00 | 0.08 | 80 | 1014.0 |
| 20260507125747 | 50 | 112 | 0.0 | 0.0 | 0.00 | 0.00 | 0.08 | 79 | 1014.1 |
| 20260507125247 | 50 | 119 | 0.0 | 0.0 | 0.00 | 0.00 | 0.08 | 81 | 1014.1 |
| 20260507124746 | 50 | 132 | 0.0 | 0.0 | 0.00 | 0.00 | 0.08 | 81 | 1014.1 |
| 20260507124242 | 49 | 122 | 0.0 | 0.0 | 0.00 | 0.00 | 0.08 | 81 | 1014.0 |
| 20260507123738 | 50 | 113 | 0.0 | 0.0 | 0.00 | 0.00 | 0.08 | 78 | 1014.0 |
| 20260507123234 | 50 | 127 | 0.0 | 0.0 | 0.00 | 0.00 | 0.08 | 76 | 1014.0 |
| 20260507122733 | 50 | 96 | 0.0 | 0.0 | 0.00 | 0.00 | 0.08 | 78 | 1014.1 |
| 20260507122233 | 49 | 115 | 0.0 | 0.0 | 0.00 | 0.00 | 0.08 | 78 | 1014.1 |
| 20260507121752 | 49 | 103 | 0.0 | 0.0 | 0.00 | 0.00 | 0.08 | 75 | 1014.1 |
| 20260507121232 | 48 | 113 | 0.0 | 0.0 | 0.00 | 0.00 | 0.08 | 77 | 1014.1 |
| 20260507120751 | 48 | 107 | 0.0 | 0.0 | 0.00 | 0.00 | 0.08 | 78 | 1014.1 |
| 20260507120245 | 48 | 123 | 0.0 | 0.0 | 0.00 | 0.00 | 0.08 | 82 | 1014.1 |
| 20260507115741 | 49 | 103 | 0.0 | 0.0 | 0.00 | 0.00 | 0.08 | 81 | 1014.0 |
| 20260507115240 | 49 | 124 | 0.0 | 0.0 | 0.00 | 0.00 | 0.08 | 81 | 1014.0 |
| 20260507114736 | 50 | 124 | 0.0 | 0.0 | 0.00 | 0.00 | 0.08 | 80 | 1014.0 |
| 20260507114249 | 50 | 199 | 0.0 | 0.0 | 0.00 | 0.00 | 0.08 | 78 | 1013.9 |
| 20260507113744 | 50 | 238 | 0.0 | 0.0 | 0.00 | 0.00 | 0.08 | 78 | 1013.9 |
| 20260507113240 | 50 | 214 | 0.0 | 0.0 | 0.00 | 0.00 | 0.08 | 76 | 1013.9 |
| 20260507112739 | 50 | 245 | 0.0 | 0.0 | 0.00 | 0.00 | 0.08 | 77 | 1014.0 |
| 20260507112235 | 50 | 270 | 0.0 | 0.0 | 0.00 | 0.00 | 0.08 | 76 | 1014.0 |
| 20260507111751 | 50 | 261 | 0.0 | 0.0 | 0.00 | 0.00 | 0.08 | 77 | 1014.0 |
| 20260507111248 | 50 | 248 | 0.0 | 0.0 | 0.00 | 0.00 | 0.08 | 79 | 1014.1 |
| 20260507110748 | 49 | 245 | 0.0 | 0.0 | 0.00 | 0.00 | 0.08 | 82 | 1014.1 |
| 20260507110247 | 49 | 248 | 0.0 | 0.0 | 0.00 | 0.00 | 0.08 | 83 | 1014.1 |
| 20260507105743 | 49 | 91 | 0.0 | 0.0 | 0.00 | 0.00 | 0.08 | 83 | 1014.1 |
| 20260507105241 | 49 | 68 | 0.0 | 0.0 | 0.00 | 0.00 | 0.08 | 82 | 1014.1 |
| 20260507104737 | 50 | 160 | 0.0 | 0.0 | 0.00 | 0.00 | 0.08 | 84 | 1014.1 |
| 20260507104234 | 49 | 82 | 0.0 | 0.0 | 0.00 | 0.00 | 0.08 | 82 | 1014.0 |
| 20260507103752 | 49 | 94 | 0.0 | 0.0 | 0.00 | 0.00 | 0.08 | 82 | 1014.0 |
| 20260507103244 | 50 | 219 | 0.0 | 0.0 | 0.00 | 0.00 | 0.08 | 77 | 1014.0 |
| 20260507102740 | 51 | 243 | 0.0 | 0.0 | 0.00 | 0.00 | 0.08 | 77 | 1014.0 |
| 20260507102239 | 50 | 255 | 0.0 | 0.0 | 0.00 | 0.00 | 0.08 | 76 | 1014.0 |
| 20260507101736 | 51 | 243 | 0.0 | 0.0 | 0.00 | 0.00 | 0.08 | 76 | 1014.0 |
| 20260507101236 | 51 | 217 | 0.0 | 0.0 | 0.00 | 0.00 | 0.08 | 76 | 1014.0 |
| 20260507100738 | 51 | 255 | 0.0 | 0.0 | 0.00 | 0.00 | 0.08 | 74 | 1014.0 |
| 20260507100234 | 50 | 217 | 0.0 | 0.0 | 0.00 | 0.00 | 0.08 | 79 | 1014.0 |
| 20260507095750 | 50 | 89 | 0.0 | 0.0 | 0.00 | 0.00 | 0.08 | 83 | 1014.0 |
| 20260507095245 | 50 | 96 | 0.0 | 0.0 | 0.00 | 0.00 | 0.08 | 80 | 1014.0 |
| 20260507094741 | 51 | 70 | 0.0 | 0.0 | 0.00 | 0.00 | 0.08 | 81 | 1014.0 |
| 20260507094241 | 51 | 227 | 0.0 | 0.0 | 0.00 | 0.00 | 0.08 | 76 | 1014.1 |
| 20260507093742 | 51 | 225 | 0.0 | 0.0 | 0.00 | 0.00 | 0.08 | 73 | 1014.1 |
| 20260507093238 | 50 | 227 | 0.0 | 0.0 | 0.00 | 0.00 | 0.08 | 80 | 1014.1 |
| 20260507092733 | 49 | 229 | 0.0 | 0.0 | 0.00 | 0.00 | 0.08 | 79 | 1014.1 |
| 20260507092230 | 49 | 237 | 0.0 | 0.0 | 0.00 | 0.00 | 0.08 | 77 | 1014.1 |
| 20260507091748 | 50 | 207 | 0.0 | 0.0 | 0.00 | 0.00 | 0.08 | 78 | 1014.1 |
| 20260507091246 | 49 | 251 | 0.0 | 0.0 | 0.00 | 0.00 | 0.08 | 80 | 1014.3 |
| 20260507090741 | 48 | 285 | 0.0 | 0.0 | 0.00 | 0.00 | 0.08 | 82 | 1014.3 |
| 20260507090237 | 47 | 257 | 0.0 | 0.0 | 0.00 | 0.00 | 0.08 | 84 | 1014.3 |
| 20260507085736 | 47 | 264 | 0.0 | 0.0 | 0.00 | 0.00 | 0.08 | 83 | 1014.3 |
| 20260507085233 | 47 | 243 | 0.0 | 0.0 | 0.00 | 0.00 | 0.08 | 84 | 1014.3 |
| 20260507084752 | 48 | 242 | 0.0 | 0.0 | 0.00 | 0.00 | 0.08 | 83 | 1014.3 |
| 20260507084247 | 47 | 241 | 0.0 | 0.0 | 0.00 | 0.00 | 0.08 | 84 | 1014.2 |
| 20260507083743 | 47 | 257 | 0.0 | 0.0 | 0.00 | 0.00 | 0.08 | 84 | 1014.2 |
| 20260507083239 | 47 | 231 | 0.0 | 0.0 | 0.00 | 0.00 | 0.08 | 86 | 1014.2 |
| 20260507082738 | 46 | 231 | 0.0 | 0.0 | 0.00 | 0.00 | 0.08 | 86 | 1014.1 |
| 20260507082241 | 46 | 229 | 0.0 | 0.0 | 0.00 | 0.00 | 0.08 | 85 | 1014.1 |
| 20260507081741 | 46 | 259 | 0.0 | 0.0 | 0.00 | 0.00 | 0.08 | 87 | 1014.1 |
| 20260507081241 | 46 | 263 | 0.0 | 0.0 | 0.00 | 0.00 | 0.08 | 87 | 1013.9 |
| 20260507080741 | 45 | 263 | 0.0 | 0.0 | 0.00 | 0.00 | 0.08 | 87 | 1013.9 |
| 20260507080241 | 45 | 267 | 0.0 | 0.0 | 0.00 | 0.00 | 0.08 | 85 | 1013.9 |
| 20260507075741 | 45 | 266 | 0.0 | 0.0 | 0.00 | 0.00 | 0.08 | 85 | 1013.7 |
| 20260507075241 | 46 | 262 | 0.0 | 0.0 | 0.00 | 0.00 | 0.08 | 85 | 1013.7 |
| 20260507074741 | 47 | 259 | 0.0 | 0.0 | 0.00 | 0.00 | 0.08 | 88 | 1013.7 |
| 20260507074240 | 48 | 248 | 0.0 | 0.0 | 0.00 | 0.00 | 0.08 | 87 | 1013.8 |
| 20260507073736 | 48 | 75 | 0.0 | 0.0 | 0.00 | 0.00 | 0.08 | 81 | 1013.8 |
| 20260507073232 | 46 | 75 | 0.0 | 0.0 | 0.00 | 0.00 | 0.08 | 87 | 1013.8 |
| 20260507072751 | 46 | 75 | 0.0 | 0.0 | 0.00 | 0.00 | 0.08 | 88 | 1013.8 |
| 20260507072247 | 45 | 75 | 0.0 | 0.0 | 0.00 | 0.00 | 0.08 | 86 | 1013.8 |
| 20260507071743 | 45 | 75 | 0.0 | 0.0 | 0.00 | 0.00 | 0.08 | 88 | 1013.8 |
| 20260507071243 | 45 | 75 | 0.0 | 0.0 | 0.00 | 0.00 | 0.08 | 88 | 1013.5 |
| 20260507070738 | 46 | 75 | 0.0 | 0.0 | 0.00 | 0.00 | 0.08 | 88 | 1013.5 |
| 20260507070235 | 46 | 63 | 0.0 | 0.0 | 0.00 | 0.00 | 0.08 | 88 | 1013.5 |
| 20260507065734 | 46 | 63 | 0.0 | 0.0 | 0.00 | 0.00 | 0.08 | 87 | 1013.4 |
| 20260507065249 | 45 | 61 | 0.0 | 0.0 | 0.00 | 0.00 | 0.08 | 87 | 1013.4 |
| 20260507064745 | 44 | 103 | 0.0 | 0.0 | 0.00 | 0.00 | 0.08 | 91 | 1013.4 |
| 20260507064241 | 44 | 103 | 0.0 | 0.0 | 0.00 | 0.00 | 0.08 | 91 | 1013.4 |
| 20260507063740 | 44 | 102 | 0.0 | 0.0 | 0.00 | 0.00 | 0.08 | 88 | 1013.4 |
| 20260507063240 | 44 | 101 | 0.0 | 0.0 | 0.00 | 0.00 | 0.08 | 87 | 1013.4 |
| 20260507062739 | 44 | 101 | 0.0 | 0.0 | 0.00 | 0.00 | 0.08 | 85 | 1013.4 |
| 20260507062235 | 45 | 101 | 0.0 | 0.0 | 0.00 | 0.00 | 0.08 | 85 | 1013.4 |
| 20260507061751 | 44 | 108 | 0.0 | 0.0 | 0.00 | 0.00 | 0.08 | 90 | 1013.4 |
| 20260507061246 | 44 | 108 | 0.0 | 0.0 | 0.00 | 0.00 | 0.08 | 87 | 1013.3 |
| 20260507060743 | 44 | 108 | 0.0 | 0.0 | 0.00 | 0.00 | 0.08 | 86 | 1013.3 |
| 20260507060243 | 43 | 103 | 0.0 | 0.0 | 0.00 | 0.00 | 0.08 | 87 | 1013.3 |
| 20260507055745 | 43 | 109 | 0.0 | 0.0 | 0.00 | 0.00 | 0.08 | 87 | 1012.4 |
| 20260507055241 | 43 | 113 | 0.0 | 0.0 | 0.00 | 0.00 | 0.08 | 89 | 1012.4 |
| 20260507054741 | 42 | 113 | 0.0 | 0.0 | 0.00 | 0.00 | 0.08 | 93 | 1012.4 |
| 20260507054239 | 41 | 113 | 0.0 | 0.0 | 0.00 | 0.00 | 0.08 | 95 | 1012.3 |
| 20260507053735 | 40 | 113 | 0.0 | 0.0 | 0.00 | 0.00 | 0.08 | 96 | 1012.3 |
| 20260507053234 | 40 | 113 | 0.0 | 0.0 | 0.00 | 0.00 | 0.08 | 96 | 1012.3 |
| 20260507052731 | 39 | 113 | 0.0 | 0.0 | 0.00 | 0.00 | 0.08 | 97 | 1012.1 |
| 20260507052230 | 39 | 113 | 0.0 | 0.0 | 0.00 | 0.00 | 0.08 | 97 | 1012.1 |
| 20260507051730 | 39 | 113 | 0.0 | 0.0 | 0.00 | 0.00 | 0.08 | 96 | 1012.1 |
| 20260507051230 | 39 | 113 | 0.0 | 0.0 | 0.00 | 0.00 | 0.08 | 96 | 1012.0 |
| 20260507050747 | 39 | 107 | 0.0 | 0.0 | 0.00 | 0.00 | 0.08 | 96 | 1012.0 |
| 20260507050243 | 39 | 105 | 0.0 | 0.0 | 0.00 | 0.00 | 0.08 | 96 | 1012.0 |
| 20260507045739 | 39 | 101 | 0.0 | 0.0 | 0.00 | 0.00 | 0.08 | 95 | 1011.9 |
| 20260507045240 | 40 | 108 | 0.0 | 0.0 | 0.00 | 0.00 | 0.08 | 93 | 1011.9 |
| 20260507044743 | 41 | 120 | 0.0 | 0.0 | 0.00 | 0.00 | 0.08 | 92 | 1011.9 |
| 20260507044239 | 41 | 151 | 0.0 | 0.0 | 0.00 | 0.00 | 0.08 | 91 | 1011.9 |
| 20260507043738 | 41 | 153 | 0.0 | 0.0 | 0.00 | 0.00 | 0.08 | 91 | 1011.9 |
| 20260507043234 | 41 | 151 | 0.0 | 0.0 | 0.00 | 0.00 | 0.08 | 92 | 1011.9 |
| 20260507042750 | 40 | 172 | 0.0 | 0.0 | 0.00 | 0.00 | 0.08 | 93 | 1011.9 |
| 20260507042247 | 40 | 172 | 0.0 | 0.0 | 0.00 | 0.00 | 0.08 | 94 | 1011.9 |
| 20260507041746 | 39 | 172 | 0.0 | 0.0 | 0.00 | 0.00 | 0.08 | 95 | 1011.9 |
| 20260507041243 | 39 | 200 | 0.0 | 0.0 | 0.00 | 0.00 | 0.08 | 95 | 1012.6 |
| 20260507040742 | 39 | 200 | 0.0 | 0.0 | 0.00 | 0.00 | 0.08 | 95 | 1012.6 |
| 20260507040237 | 39 | 225 | 0.0 | 0.0 | 0.00 | 0.00 | 0.08 | 95 | 1012.6 |
| 20260507035733 | 39 | 283 | 0.0 | 0.0 | 0.00 | 0.00 | 0.08 | 96 | 1012.8 |
| 20260507035229 | 39 | 283 | 0.0 | 0.0 | 0.00 | 0.00 | 0.08 | 96 | 1012.8 |
| 20260507034749 | 39 | 319 | 0.0 | 0.0 | 0.00 | 0.00 | 0.07 | 96 | 1012.8 |
| 20260507034245 | 39 | 311 | 0.0 | 0.0 | 0.00 | 0.00 | 0.07 | 96 | 1012.8 |
| 20260507033741 | 39 | 257 | 0.0 | 0.0 | 0.00 | 0.00 | 0.06 | 96 | 1012.8 |
| 20260507033241 | 39 | 262 | 0.0 | 0.0 | 0.00 | 0.00 | 0.05 | 96 | 1012.8 |
| 20260507032737 | 40 | 250 | 0.0 | 0.0 | 0.00 | 0.00 | 0.04 | 96 | 1012.8 |
| 20260507032240 | 40 | 224 | 0.0 | 0.0 | 0.00 | 0.00 | 0.04 | 97 | 1012.8 |
| 20260507031740 | 40 | 260 | 0.0 | 0.0 | 0.00 | 0.00 | 0.04 | 97 | 1012.8 |
| 20260507031240 | 40 | 350 | 0.0 | 0.0 | 0.00 | 0.00 | 0.04 | 97 | 1012.8 |
| 20260507030740 | 39 | 252 | 0.0 | 0.0 | 0.00 | 0.00 | 0.04 | 97 | 1012.8 |
| 20260507030240 | 39 | 252 | 0.0 | 0.0 | 0.00 | 0.00 | 0.04 | 97 | 1012.8 |
| 20260507025740 | 40 | 250 | 0.0 | 0.0 | 0.00 | 0.00 | 0.04 | 97 | 1012.8 |
| 20260507025239 | 40 | 238 | 0.0 | 0.0 | 0.00 | 0.00 | 0.04 | 97 | 1012.8 |
| 20260507024738 | 40 | 242 | 0.0 | 0.0 | 0.00 | 0.00 | 0.04 | 97 | 1012.8 |
| 20260507024238 | 40 | 240 | 0.0 | 0.0 | 0.00 | 0.00 | 0.04 | 97 | 1012.8 |
| 20260507023734 | 40 | 250 | 0.0 | 0.0 | 0.00 | 0.00 | 0.04 | 96 | 1012.8 |
| 20260507023234 | 40 | 260 | 0.0 | 0.0 | 0.00 | 0.00 | 0.04 | 97 | 1012.8 |
| 20260507022748 | 41 | 265 | 0.0 | 0.0 | 0.00 | 0.00 | 0.04 | 96 | 1012.5 |
| 20260507022247 | 41 | 281 | 0.0 | 0.0 | 0.00 | 0.00 | 0.04 | 96 | 1012.5 |
| 20260507021746 | 41 | 280 | 0.0 | 0.0 | 0.00 | 0.00 | 0.04 | 96 | 1012.5 |
| 20260507021242 | 41 | 278 | 0.0 | 0.0 | 0.00 | 0.00 | 0.03 | 95 | 1012.3 |
| 20260507020742 | 41 | 203 | 0.0 | 0.0 | 0.00 | 0.00 | 0.02 | 95 | 1012.3 |
| 20260507020240 | 41 | 203 | 0.0 | 0.0 | 0.00 | 0.00 | 0.02 | 94 | 1012.3 |
| 20260507015740 | 41 | 203 | 0.0 | 0.0 | 0.00 | 0.00 | 0.02 | 94 | 1012.1 |
| 20260507015240 | 41 | 202 | 0.0 | 0.0 | 0.00 | 0.00 | 0.01 | 93 | 1012.1 |
| 20260507014736 | 42 | 172 | 0.0 | 0.0 | 0.00 | 0.00 | 0.01 | 91 | 1012.1 |
| 20260507014232 | 42 | 157 | 0.0 | 0.0 | 0.00 | 0.00 | 0.01 | 90 | 1012.0 |
| 20260507013730 | 42 | 120 | 0.0 | 0.0 | 0.00 | 0.00 | 0.01 | 90 | 1012.0 |
| 20260507013230 | 41 | 110 | 0.0 | 0.0 | 0.00 | 0.00 | 0.01 | 92 | 1012.0 |
| 20260507012751 | 41 | 115 | 0.0 | 0.0 | 0.00 | 0.00 | 0.01 | 93 | 1011.9 |
| 20260507012246 | 41 | 102 | 0.0 | 0.0 | 0.00 | 0.00 | 0.01 | 92 | 1011.9 |
| 20260507011742 | 42 | 99 | 0.0 | 0.0 | 0.00 | 0.00 | 0.01 | 91 | 1011.9 |
| 20260507011242 | 42 | 101 | 0.0 | 0.0 | 0.00 | 0.00 | 0.01 | 89 | 1012.1 |
| 20260507010741 | 43 | 128 | 0.0 | 0.0 | 0.00 | 0.00 | 0.01 | 87 | 1012.1 |
| 20260507010237 | 43 | 217 | 0.0 | 0.0 | 0.00 | 0.00 | 0.01 | 88 | 1012.1 |
| 20260507005737 | 42 | 217 | 0.0 | 0.0 | 0.00 | 0.00 | 0.01 | 89 | 1012.2 |
| 20260507005236 | 42 | 217 | 0.0 | 0.0 | 0.00 | 0.00 | 0.01 | 91 | 1012.2 |
| 20260507004736 | 42 | 217 | 0.0 | 0.0 | 0.00 | 0.00 | 0.00 | 91 | 1012.2 |
| 20260507004236 | 42 | 217 | 0.0 | 0.0 | 0.00 | 0.00 | 0.00 | 91 | 1012.2 |
| 20260507003752 | 42 | 217 | 0.0 | 0.0 | 0.00 | 0.00 | 0.00 | 91 | 1012.2 |
| 20260506233241 | 41 | 217 | 0.0 | 0.0 | 0.00 | 0.00 | 0.00 | 94 | 1012.6 |
| 20260506232737 | 41 | 217 | 0.0 | 0.0 | 0.00 | 0.00 | 0.00 | 95 | 1012.4 |
| 20260506232234 | 41 | 217 | 0.0 | 0.0 | 0.00 | 0.00 | 0.00 | 94 | 1012.4 |
| 20260506231734 | 41 | 217 | 0.0 | 0.0 | 0.00 | 0.00 | 0.00 | 94 | 1012.4 |
| 20260506231248 | 41 | 217 | 0.0 | 0.0 | 0.00 | 0.00 | 0.00 | 93 | 1012.2 |
| 20260506230745 | 41 | 220 | 0.0 | 0.0 | 0.00 | 0.00 | 0.00 | 92 | 1012.2 |
| 20260506230241 | 41 | 111 | 0.0 | 0.0 | 0.00 | 0.00 | 0.00 | 92 | 1012.2 |
| 20260506225740 | 41 | 101 | 0.0 | 0.0 | 0.00 | 0.00 | 0.00 | 94 | 1012.2 |
| 20260506225237 | 40 | 100 | 0.0 | 0.0 | 0.00 | 0.00 | 0.00 | 94 | 1012.2 |
| 20260506224741 | 41 | 108 | 0.0 | 0.0 | 0.00 | 0.00 | 0.00 | 92 | 1012.2 |
| 20260506224241 | 42 | 203 | 0.0 | 0.0 | 0.00 | 0.00 | 0.00 | 91 | 1012.2 |
| 20260506223740 | 42 | 205 | 0.0 | 0.0 | 0.00 | 0.00 | 0.00 | 90 | 1012.2 |
| 20260506223237 | 42 | 115 | 0.0 | 0.0 | 0.00 | 0.00 | 0.00 | 90 | 1012.2 |
| 20260506222753 | 41 | 110 | 0.0 | 0.0 | 0.00 | 0.00 | 0.00 | 92 | 1012.3 |
| 20260506222249 | 41 | 101 | 0.0 | 0.0 | 0.00 | 0.00 | 0.00 | 93 | 1012.3 |
| 20260506221747 | 41 | 103 | 0.0 | 0.0 | 0.00 | 0.00 | 0.00 | 93 | 1012.3 |
| 20260506221247 | 41 | 103 | 0.0 | 0.0 | 0.00 | 0.00 | 0.00 | 92 | 1012.3 |
| 20260506220746 | 42 | 133 | 0.0 | 0.0 | 0.00 | 0.00 | 0.00 | 92 | 1012.3 |
| 20260506220242 | 42 | 98 | 0.0 | 0.0 | 0.00 | 0.00 | 0.00 | 92 | 1012.3 |
| 20260506215738 | 42 | 94 | 0.0 | 0.0 | 0.00 | 0.00 | 0.97 | 93 | 1012.3 |
| 20260506215235 | 42 | 94 | 0.0 | 0.0 | 0.00 | 0.00 | 0.97 | 93 | 1012.3 |
| 20260506214749 | 42 | 94 | 0.0 | 0.0 | 0.00 | 0.00 | 0.97 | 93 | 1012.3 |
| 20260506214245 | 42 | 94 | 0.0 | 0.0 | 0.00 | 0.00 | 0.97 | 92 | 1012.4 |
| 20260506213740 | 42 | 94 | 0.0 | 0.0 | 0.00 | 0.00 | 0.97 | 92 | 1012.4 |
| 20260506213241 | 42 | 94 | 0.0 | 0.0 | 0.00 | 0.00 | 0.97 | 92 | 1012.4 |
| 20260506212741 | 42 | 101 | 0.0 | 0.0 | 0.00 | 0.00 | 0.96 | 93 | 1011.6 |
| 20260506212241 | 41 | 120 | 0.0 | 0.0 | 0.00 | 0.00 | 0.95 | 96 | 1011.6 |
| 20260506211741 | 41 | 229 | 0.0 | 0.0 | 0.00 | 0.00 | 0.95 | 96 | 1011.6 |
| 20260506211241 | 41 | 229 | 0.0 | 0.0 | 0.00 | 0.00 | 0.95 | 97 | 1011.5 |
| 20260506210741 | 40 | 229 | 0.0 | 0.0 | 0.00 | 0.00 | 0.95 | 97 | 1011.5 |
| 20260506210240 | 40 | 229 | 0.0 | 0.0 | 0.00 | 0.00 | 0.95 | 97 | 1011.5 |
| 20260506205737 | 40 | 229 | 0.0 | 0.0 | 0.00 | 0.00 | 0.95 | 97 | 1011.6 |
| 20260506205237 | 40 | 229 | 0.0 | 0.0 | 0.00 | 0.00 | 0.95 | 97 | 1011.6 |
| 20260506204736 | 40 | 229 | 0.0 | 0.0 | 0.00 | 0.00 | 0.95 | 97 | 1011.6 |
| 20260506204252 | 40 | 229 | 0.0 | 0.0 | 0.00 | 0.00 | 0.95 | 98 | 1011.9 |
| 20260506203748 | 40 | 229 | 0.0 | 0.0 | 0.00 | 0.00 | 0.95 | 98 | 1011.9 |
| 20260506203245 | 40 | 232 | 0.0 | 0.0 | 0.00 | 0.00 | 0.95 | 97 | 1011.9 |
| 20260506202743 | 40 | 233 | 0.0 | 0.0 | 0.00 | 0.00 | 0.95 | 98 | 1011.8 |
| 20260506202244 | 40 | 233 | 0.0 | 0.0 | 0.00 | 0.00 | 0.95 | 97 | 1011.8 |
| 20260506201744 | 40 | 231 | 0.0 | 0.0 | 0.00 | 0.00 | 0.95 | 98 | 1011.8 |
| 20260506201242 | 40 | 231 | 0.0 | 0.0 | 0.00 | 0.00 | 0.95 | 98 | 1011.4 |
| 20260506200738 | 40 | 244 | 0.0 | 0.0 | 0.00 | 0.00 | 0.95 | 97 | 1011.4 |
| 20260506200230 | 40 | 238 | 0.0 | 0.0 | 0.00 | 0.00 | 0.95 | 98 | 1011.4 |
| 20260506195750 | 40 | 108 | 0.0 | 0.0 | 0.00 | 0.00 | 0.95 | 98 | 1011.2 |
| 20260506195246 | 40 | 99 | 0.0 | 0.0 | 0.00 | 0.00 | 0.95 | 98 | 1011.2 |
| 20260506194745 | 40 | 94 | 0.0 | 0.0 | 0.00 | 0.00 | 0.95 | 98 | 1011.2 |
| 20260506194235 | 40 | 99 | 0.0 | 0.0 | 0.00 | 0.00 | 0.95 | 98 | 1011.0 |
| 20260506193734 | 40 | 94 | 0.0 | 0.0 | 0.00 | 0.00 | 0.95 | 98 | 1011.0 |
| 20260506193250 | 40 | 96 | 0.0 | 0.0 | 0.00 | 0.00 | 0.95 | 98 | 1011.0 |
| 20260506192746 | 40 | 96 | 0.0 | 0.0 | 0.00 | 0.00 | 0.95 | 98 | 1010.7 |